Findlay, OH

2:56 PM EDT on July 24, 2017 (GMT -0400)
Findlay

Weather History for KFDY - February, 2014

Change the Weather History Date:

Tuesday, February 11, 2014

  Actual Average Record
Temperature  
Mean Temperature 0 °F -  
Max Temperature 10 °F 32 °F 71 °F (1999)
Min Temperature -9 °F 19 °F -9 °F (2014)
Degree Days  
Heating Degree Days 64    
Moisture  
Dew Point -6 °F    
Average Humidity 78    
Maximum Humidity 96    
Minimum Humidity 64    
Precipitation  
Precipitation 0.00 in - - ()
Sea Level Pressure  
Sea Level Pressure 30.48 in    
Wind  
Wind Speed 4 mph (West)    
Max Wind Speed 8 mph    
Max Gust Speed -    
Visibility 7 miles    
Events Snow    
Averages and records for this station are not official NWS values.
T = Trace of Precipitation, MM = Missing Value Source: NWS Daily Summary

Daily Weather History Graph

Daily Weather History Graph

Search for Another Location

Airport or City:

Trip Planner

Search our weather history database for the weather conditions in past years. The results will help you decide how hot, cold, wet, or windy it might be!

Date:

Astronomy

Feb. 11, 2014 Rise Set
Actual Time 7:34 AM EST 6:04 PM EST
Civil Twilight 7:05 AM EST 6:32 PM EST
Nautical Twilight 6:33 AM EST 7:05 PM EST
Astronomical Twilight 6:01 AM EST 7:37 PM EST
Moon 3:23 PM EST (2/11) 5:11 AM EST (2/11)
Length of Visible Light 11h 26m
Length of Day
10h 30m
Waxing Gibbous, 90% of the Moon is Illuminated
Feb 11
Waxing Gibbous
Feb 14
Full
Feb 22
Last Quarter
Mar 1
New
Mar 8
First Quarter

Hourly Weather History & Observations

Time (EST) Temp. Windchill Dew Point Humidity Pressure Visibility Wind Dir Wind Speed Gust Speed Precip Events Conditions
12:53 AM -6.0 °F -18.6 °F -9.0 °F 87% 30.42 in 6.0 mi West 5.8 mph - N/A   Clear
1:53 AM -6.0 °F -21.5 °F -9.0 °F 87% 30.43 in 6.0 mi West 8.1 mph - N/A   Clear
2:53 AM -6.0 °F -14.7 °F -9.0 °F 87% 30.43 in 6.0 mi West 3.5 mph - N/A   Clear
3:53 AM -6.0 °F -16.9 °F -9.9 °F 83% 30.43 in 5.0 mi West 4.6 mph - N/A   Clear
4:53 AM -8.0 °F - -11.9 °F 83% 30.43 in 5.0 mi Calm Calm - N/A   Partly Cloudy
5:23 AM -6.0 °F - -11.0 °F 79% 30.39 in 5.0 mi Calm Calm - N/A   Haze
5:53 AM -9.0 °F - -11.0 °F 91% 30.46 in 4.0 mi Calm Calm - N/A   Mostly Cloudy
6:53 AM -6.0 °F -14.7 °F -11.0 °F 79% 30.48 in 6.0 mi SSW 3.5 mph - N/A   Haze
7:53 AM -5.1 °F - -9.0 °F 83% 30.51 in 6.0 mi Calm Calm - N/A   Overcast
8:53 AM -2.9 °F - -6.0 °F 87% 30.52 in 5.0 mi Calm Calm - N/A   Overcast
9:20 AM -2.0 °F - -2.9 °F 96% 30.46 in 5.0 mi Calm Calm - N/A   Scattered Clouds
9:53 AM -0.9 °F - -2.0 °F 95% 30.52 in 6.0 mi Calm Calm - N/A   Clear
10:53 AM 5.0 °F -5.6 °F -0.9 °F 76% 30.53 in 7.0 mi West 5.8 mph - 0.00 in Snow Light Snow
11:53 AM 7.0 °F -3.3 °F 1.0 °F 77% 30.53 in 10.0 mi West 5.8 mph - 0.00 in   Clear
12:53 PM 9.0 °F -2.2 °F -0.0 °F 67% 30.52 in - West 6.9 mph - N/A   Clear
1:53 PM 10.0 °F 1.8 °F -0.0 °F 64% 30.51 in 10.0 mi North 4.6 mph - N/A   Partly Cloudy
2:53 PM 10.0 °F -1.9 °F -0.0 °F 64% 30.50 in 10.0 mi WNW 8.1 mph - N/A   Clear
3:53 PM 10.9 °F 0.2 °F 1.0 °F 64% 30.51 in 10.0 mi NW 6.9 mph - N/A   Partly Cloudy
4:53 PM 10.0 °F 1.8 °F -0.0 °F 64% 30.51 in 10.0 mi NW 4.6 mph - N/A   Partly Cloudy
5:53 PM 9.0 °F - -0.9 °F 64% 30.51 in 10.0 mi Calm Calm - N/A   Clear
6:53 PM 3.0 °F - -2.9 °F 76% 30.51 in 10.0 mi Calm Calm - N/A   Clear
7:53 PM 1.0 °F - -4.0 °F 79% 30.52 in 9.0 mi Calm Calm - N/A   Clear
8:53 PM -0.9 °F - -7.1 °F 75% 30.50 in 9.0 mi Calm Calm - N/A   Clear
9:53 PM -4.0 °F -12.4 °F -9.0 °F 79% 30.49 in 8.0 mi SE 3.5 mph - N/A   Clear
10:53 PM -2.0 °F -12.2 °F -9.0 °F 72% 30.48 in 8.0 mi ENE 4.6 mph - N/A   Clear
11:53 PM -9.0 °F - -14.1 °F 79% 30.48 in 9.0 mi Calm Calm - N/A   Clear